Franklin, PA

12:41 PM EDT on September 26, 2017 (GMT -0400)
Venango Regional

Weather History for KFKL - November, 2013

Change the Weather History Date:

Friday, November 1, 2013

  Actual Average Record
Temperature  
Mean Temperature 54 °F -  
Max Temperature 60 °F 58 °F 80 °F (1933)
Min Temperature 48 °F 35 °F 19 °F (1988)
Degree Days  
Heating Degree Days 11    
Growing Degree Days 4 (Base 50)    
Moisture  
Dew Point 43 °F    
Average Humidity 68    
Maximum Humidity 94    
Minimum Humidity 54    
Precipitation  
Precipitation 0.21 in - - ()
Sea Level Pressure  
Sea Level Pressure 29.57 in    
Wind  
Wind Speed 16 mph (SW)    
Max Wind Speed 23 mph    
Max Gust Speed 41 mph    
Visibility 10 miles    
Events      
Averages and records for this station are not official NWS values.
T = Trace of Precipitation, MM = Missing Value Source: NWS Daily Summary

Daily Weather History Graph

Daily Weather History Graph

Search for Another Location

Airport or City:

Trip Planner

Search our weather history database for the weather conditions in past years. The results will help you decide how hot, cold, wet, or windy it might be!

Date:

Astronomy

Nov. 01, 2013 Rise Set
Actual Time 7:51 AM EDT 6:14 PM EDT
Civil Twilight 7:22 AM EDT 6:42 PM EDT
Nautical Twilight 6:49 AM EDT 7:15 PM EDT
Astronomical Twilight 6:17 AM EDT 7:47 PM EDT
Moon 5:40 AM EDT (11/1) 5:07 PM EDT (11/1)
Length of Visible Light 11h 20m
Length of Day
10h 23m
Waning Crescent, 4% of the Moon is Illuminated
Nov 1
Waning Crescent
Nov 3
New
Nov 10
First Quarter
Nov 17
Full
Nov 25
Last Quarter

Hourly Weather History & Observations

Time (EDT) Temp. Dew Point Humidity Pressure Visibility Wind Dir Wind Speed Gust Speed Precip Events Conditions
12:15 AM 57.2 °F 53.6 °F 88% 29.44 in 10.0 mi South 19.6 mph 27.6 mph 0.01 in   Overcast
12:35 AM 57.2 °F 53.6 °F 88% 29.42 in 10.0 mi South 23.0 mph 32.2 mph 0.01 in   Overcast
12:55 AM 59.0 °F 53.6 °F 82% 29.41 in 10.0 mi South 21.9 mph 34.5 mph 0.01 in   Overcast
1:15 AM 57.2 °F 53.6 °F 88% 29.39 in 9.0 mi South 20.7 mph 27.6 mph 0.02 in   Overcast
1:35 AM 59.0 °F 53.6 °F 82% 29.38 in 10.0 mi South 19.6 mph 26.5 mph 0.02 in   Overcast
1:55 AM 59.0 °F 53.6 °F 82% 29.37 in 10.0 mi South 17.3 mph 28.8 mph 0.02 in   Overcast
2:15 AM 60.8 °F 53.6 °F 77% 29.35 in 10.0 mi South 20.7 mph 26.5 mph N/A   Overcast
2:35 AM 60.8 °F 53.6 °F 77% 29.34 in 10.0 mi South 20.7 mph 27.6 mph N/A   Overcast
2:55 AM 59.0 °F 53.6 °F 82% 29.34 in 10.0 mi South 21.9 mph 31.1 mph N/A   Overcast
3:15 AM 59.0 °F 53.6 °F 82% 29.34 in 9.0 mi South 16.1 mph 24.2 mph 0.01 in   Overcast
3:35 AM 57.2 °F 55.4 °F 94% 29.39 in 9.0 mi SW 11.5 mph - 0.13 in   Mostly Cloudy
3:55 AM 59.0 °F 55.4 °F 88% 29.40 in 10.0 mi WSW 15.0 mph 24.2 mph 0.15 in   Overcast
4:15 AM 57.2 °F 53.6 °F 88% 29.39 in 10.0 mi SW 13.8 mph 21.9 mph 0.01 in   Overcast
4:35 AM 57.2 °F 51.8 °F 82% 29.37 in 10.0 mi SSW 16.1 mph - 0.02 in   Overcast
4:55 AM 55.4 °F 51.8 °F 88% 29.39 in 10.0 mi SW 15.0 mph 23.0 mph 0.03 in   Overcast
5:15 AM 55.4 °F 51.8 °F 88% 29.42 in 10.0 mi SW 17.3 mph 25.3 mph N/A   Overcast
5:35 AM 55.4 °F 50.0 °F 82% 29.41 in 10.0 mi SW 19.6 mph 27.6 mph N/A   Overcast
5:55 AM 55.4 °F 48.2 °F 77% 29.43 in 10.0 mi SW 18.4 mph 23.0 mph N/A   Overcast
6:15 AM 55.4 °F 48.2 °F 77% 29.43 in 10.0 mi SW 17.3 mph 25.3 mph N/A   Overcast
6:35 AM 55.4 °F 48.2 °F 77% 29.45 in 10.0 mi SW 17.3 mph 25.3 mph N/A   Overcast
6:55 AM 55.4 °F 48.2 °F 77% 29.46 in 10.0 mi SW 15.0 mph 28.8 mph N/A   Overcast
7:15 AM 55.4 °F 48.2 °F 77% 29.47 in 10.0 mi SW 16.1 mph 24.2 mph N/A   Overcast
7:35 AM 55.4 °F 48.2 °F 77% 29.49 in 10.0 mi SW 16.1 mph 21.9 mph N/A   Mostly Cloudy
7:55 AM 55.4 °F 48.2 °F 77% 29.51 in 10.0 mi WSW 19.6 mph 29.9 mph N/A   Overcast
8:15 AM 55.4 °F 46.4 °F 72% 29.53 in 10.0 mi SW 18.4 mph 27.6 mph N/A   Mostly Cloudy
8:35 AM 53.6 °F 42.8 °F 67% 29.55 in 10.0 mi West 18.4 mph 41.4 mph N/A   Partly Cloudy
8:55 AM 53.6 °F 41.0 °F 62% 29.56 in 10.0 mi WSW 15.0 mph 24.2 mph N/A   Partly Cloudy
9:15 AM 53.6 °F 42.8 °F 67% 29.58 in 10.0 mi SW 16.1 mph 26.5 mph N/A   Scattered Clouds
9:35 AM 53.6 °F 41.0 °F 62% 29.60 in 10.0 mi SW 23.0 mph 31.1 mph N/A   Overcast
9:55 AM 53.6 °F 41.0 °F 62% 29.60 in 10.0 mi WSW 18.4 mph 27.6 mph N/A   Mostly Cloudy
10:15 AM 53.6 °F 41.0 °F 62% 29.60 in 10.0 mi SW 17.3 mph 24.2 mph N/A   Scattered Clouds
10:35 AM 53.6 °F 39.2 °F 58% 29.60 in 10.0 mi WSW 16.1 mph 35.7 mph N/A   Partly Cloudy
10:55 AM 53.6 °F 37.4 °F 54% 29.61 in 10.0 mi WSW 19.6 mph 32.2 mph N/A   Mostly Cloudy
11:15 AM 53.6 °F 39.2 °F 58% 29.62 in 10.0 mi WSW 18.4 mph 25.3 mph N/A   Overcast
11:35 AM 53.6 °F 39.2 °F 58% 29.63 in 10.0 mi WSW 12.7 mph 21.9 mph N/A   Overcast
11:55 AM 51.8 °F 39.2 °F 62% 29.65 in 10.0 mi West 18.4 mph 31.1 mph N/A   Overcast
12:15 PM 51.8 °F 37.4 °F 58% 29.66 in 10.0 mi WSW 17.3 mph 27.6 mph N/A   Overcast
12:35 PM 51.8 °F 37.4 °F 58% 29.66 in 10.0 mi West 15.0 mph 27.6 mph N/A   Overcast
12:55 PM 51.8 °F 37.4 °F 58% 29.66 in 10.0 mi WSW 13.8 mph 26.5 mph N/A   Overcast
1:15 PM 51.8 °F 37.4 °F 58% 29.65 in 10.0 mi WSW 16.1 mph 25.3 mph N/A   Overcast
1:35 PM 51.8 °F 37.4 °F 58% 29.65 in 10.0 mi WSW 13.8 mph 26.5 mph N/A   Overcast
1:55 PM 51.8 °F 39.2 °F 62% 29.65 in 10.0 mi WSW 15.0 mph 20.7 mph N/A   Overcast
2:15 PM 51.8 °F 37.4 °F 58% 29.65 in 10.0 mi WSW 12.7 mph 23.0 mph N/A   Overcast
2:35 PM 53.6 °F 37.4 °F 54% 29.64 in 10.0 mi WSW 10.4 mph 20.7 mph N/A   Overcast
2:55 PM 53.6 °F 39.2 °F 58% 29.64 in 10.0 mi West 11.5 mph 16.1 mph N/A   Overcast
3:15 PM 53.6 °F 37.4 °F 54% 29.64 in 10.0 mi SW 18.4 mph 25.3 mph N/A   Overcast
3:35 PM 53.6 °F 37.4 °F 54% 29.65 in 10.0 mi WSW 12.7 mph 23.0 mph N/A   Overcast
3:55 PM 53.6 °F 37.4 °F 54% 29.65 in 10.0 mi WSW 11.5 mph 25.3 mph N/A   Overcast
4:15 PM 53.6 °F 37.4 °F 54% 29.66 in 10.0 mi West 13.8 mph 17.3 mph N/A   Overcast
4:35 PM 53.6 °F 37.4 °F 54% 29.65 in 10.0 mi WSW 11.5 mph 19.6 mph N/A   Overcast
4:55 PM 53.6 °F 37.4 °F 54% 29.65 in 10.0 mi WSW 13.8 mph 19.6 mph N/A   Overcast
5:15 PM 53.6 °F 37.4 °F 54% 29.66 in 10.0 mi SW 9.2 mph - N/A   Overcast
5:35 PM 53.6 °F 37.4 °F 54% 29.67 in 10.0 mi WSW 6.9 mph - N/A   Overcast
5:55 PM 53.6 °F 37.4 °F 54% 29.67 in 10.0 mi WSW 9.2 mph - N/A   Overcast
6:15 PM 53.6 °F 37.4 °F 54% 29.67 in 10.0 mi WSW 6.9 mph - N/A   Overcast
6:35 PM 53.6 °F 37.4 °F 54% 29.68 in 10.0 mi WSW 9.2 mph - N/A   Overcast
6:55 PM 53.6 °F 37.4 °F 54% 29.68 in 10.0 mi WSW 6.9 mph - N/A   Overcast
7:15 PM 51.8 °F 37.4 °F 58% 29.69 in 10.0 mi WSW 5.8 mph - N/A   Overcast
7:35 PM 51.8 °F 37.4 °F 58% 29.70 in 10.0 mi WSW 6.9 mph - N/A   Overcast
7:55 PM 51.8 °F 37.4 °F 58% 29.70 in 10.0 mi WSW 6.9 mph - N/A   Overcast
8:15 PM 51.8 °F 37.4 °F 58% 29.70 in 10.0 mi WSW 5.8 mph - N/A   Overcast
8:35 PM 51.8 °F 37.4 °F 58% 29.70 in 10.0 mi WSW 3.5 mph - N/A   Overcast
8:55 PM 50.0 °F 37.4 °F 62% 29.70 in 10.0 mi SW 3.5 mph - N/A   Overcast
9:15 PM 50.0 °F 37.4 °F 62% 29.70 in 10.0 mi WSW 3.5 mph - N/A   Overcast
9:35 PM 50.0 °F 37.4 °F 62% 29.71 in 10.0 mi Calm Calm - N/A   Overcast
9:55 PM 50.0 °F 37.4 °F 62% 29.71 in 10.0 mi SW 3.5 mph - N/A   Overcast
10:15 PM 50.0 °F 37.4 °F 62% 29.71 in 10.0 mi Calm Calm - N/A   Overcast
10:35 PM 48.2 °F 39.2 °F 71% 29.71 in 10.0 mi Calm Calm - N/A   Overcast
10:55 PM 48.2 °F 39.2 °F 71% 29.71 in 9.0 mi WSW 4.6 mph - N/A   Overcast
11:15 PM 48.2 °F 41.0 °F 76% 29.70 in 9.0 mi WSW 4.6 mph - N/A   Overcast
11:35 PM 48.2 °F 41.0 °F 76% 29.70 in 10.0 mi SW 3.5 mph - N/A   Overcast
11:55 PM 48.2 °F 42.8 °F 82% 29.70 in 10.0 mi WSW 5.8 mph - N/A   Overcast